Kuressaare current weather conditions

sailwx.info

Air temperature -2.0° C
Visibility: greater than 0.3 NM
Dewpoint -2.0° C
Present weather: Fog.

Last reported at 2018-Dec-10 21:04 UTC.
Time now 2018-Dec-10 21:42 UTC

Location: N 58°14' E 022°31'.
View on Google Maps.

See reports from other nearby stations

  
Tides and Currents Weather Stations Pressure Air Temp Water Temp Dewpoint Dewpoint Depression Visibility Wind Speed Wind Dir Waves Ship Positions
date/time (UTC)wind fromknots sea level pressurealtimeterstation pressurevisibilityair tempwater tempwave heightnotes
2018-Dec-10 21:04 0.3-2.0 Fog.
2018-Dec-10 20:57 150 0 0.4-2.0 Fog.
2018-Dec-10 20:56 0.4-2.0 Fog.
2018-Dec-10 20:55 0.4-2.0 Fog.
2018-Dec-10 20:53 4.3-2.0 Fog.
2018-Dec-10 20:52 4.9-2.0 Mist.
2018-Dec-10 20:50 130 0 1.9-2.0 Mist.
2018-Dec-10 20:39 130 0 1.9-2.0 Mist.
2018-Dec-10 20:28 120 0 0.9-1.0 Fog.
2018-Dec-10 20:17 100 0 0.6-1.0 Fog.
2018-Dec-10 20:05 0.5-1.0 Fog.
2018-Dec-10 19:55 050 1 0.6-1.0 Fog.
2018-Dec-10 19:53 050 1 0.6-1.0 Mist.
2018-Dec-10 19:52 050 1 2.4-1.0 Mist.
2018-Dec-10 19:51 050 1 2.7-1.0 Mist.
2018-Dec-10 19:50 050 0 3.8-1.0 Mist.
2018-Dec-10 19:32 050 1 1.8-1.0 Mist.
2018-Dec-10 19:31 060 1 2.0-1.0 Mist.
2018-Dec-10 19:28 060 0 2.2-1.0 Mist.
2018-Dec-10 19:23 4.9-1.0
2018-Dec-10 18:50 5.4-1.0
2018-Dec-10 17:50 260 2 5.4 1.0
2018-Dec-10 16:50 230 2 5.4 2.0
2018-Dec-10 15:50 210 4 5.4 3.0
2018-Dec-10 14:50 220 4 5.4 3.0
2018-Dec-10 13:50 5.4 3.0
2018-Dec-10 12:50 5.4 4.0
2018-Dec-10 11:50 5.4 4.0
2018-Dec-10 10:50 290 5 5.4 4.0
2018-Dec-10 09:50 200 6 5.4 4.0
2018-Dec-10 08:50 180 5 3.2 4.0
2018-Dec-10 07:50 180 5 3.2 4.0
2018-Dec-10 07:17 180 6 3.2 4.0
2018-Dec-10 06:50 180 6 2.4 3.0 Mist.
2018-Dec-10 05:50 170 6 4.3 3.0
2018-Dec-10 04:50 170 6 4.3 3.0
2018-Dec-10 04:18 170 7 3.2 3.0 Light rain.
2018-Dec-10 03:50 170 6 3.2 3.0 Drizzle.
2018-Dec-10 03:37 170 6 3.2 3.0 Drizzle.
2018-Dec-10 03:29 170 7 3.2 3.0 Light rain.
2018-Dec-10 03:18 170 7 3.2 3.0 Drizzle.
2018-Dec-10 03:11 170 7 2.7 3.0 Drizzle.
2018-Dec-10 03:00 180 8 2.7 3.0 Light rain. Mist.
2018-Dec-10 02:50 180 7 1.9 3.0 Light rain. Mist.
2018-Dec-10 02:11 170 11 2.5 3.0 Light rain. Mist.
2018-Dec-10 02:07 170 9 2.5 3.0 Mist.
2018-Dec-10 01:50 170 9 3.8 3.0
2018-Dec-10 00:50 180 12 4.9 3.0
2018-Dec-10 00:35 170 12 3.8 3.0
2018-Dec-10 00:24 170 12 3.2 3.0 Light rain.
2018-Dec-10 00:18 170 12 3.2 3.0 Light rain.
2018-Dec-10 00:07 170 12 2.6 3.0 Light rain. Mist.
2018-Dec-10 00:06 170 12 2.7 3.0 Light rain. Mist.
2018-Dec-09 23:50 180 11 2.7 3.0 Light rain. Mist.
2018-Dec-09 22:50 170 13 5.4 3.0 Light rain.
2018-Dec-09 22:32 170 13 5.4 3.0 Light drizzle.
2018-Dec-09 22:28 170 13 4.3 3.0 Light drizzle.
2018-Dec-09 22:17 170 13 3.2 3.0 Light drizzle.
2018-Dec-09 22:06 170 13 3.2 3.0 Light drizzle.
2018-Dec-09 21:57 180 13 3.2 3.0 Drizzle.
2018-Dec-09 21:50 170 14 3.8 3.0 Light rain.
2018-Dec-09 21:22 170 14 3.8 3.0 Light rain.
2018-Dec-09 21:06 170 14 5.4 3.0 Light rain.
2018-Dec-09 21:00 170 15 5.4 3.0 Light rain.
2018-Dec-09 20:50 170 15 3.2 3.0 Light drizzle.
2018-Dec-09 20:29 160 14 3.2 3.0 Drizzle.
2018-Dec-09 20:27 160 14 3.2 3.0 Drizzle.
2018-Dec-09 20:23 160 14 2.7 3.0 Light rain.
2018-Dec-09 20:20 160 14 3.2 3.0 Light rain.
2018-Dec-09 20:05 170 15 4.3 3.0 Light rain.
2018-Dec-09 19:50 170 14 4.3 3.0 Light rain.
2018-Dec-09 19:23 170 14 3.8 3.0 Light rain.
2018-Dec-09 19:09 170 15 3.8 3.0 Drizzle.
2018-Dec-09 18:50 170 15 5.4 4.0 Light drizzle.
2018-Dec-09 18:38 170 15 5.4 4.0 Light rain.
2018-Dec-09 18:18 170 15 5.4 4.0
2018-Dec-09 18:07 170 14 5.4 4.0
2018-Dec-09 17:57 170 15 5.4 4.0
2018-Dec-09 17:50 170 15 5.4 4.0
2018-Dec-09 16:50 170 17 5.4 4.0 Light rain.
2018-Dec-09 15:50 170 18 4.9 4.0 Light rain.
2018-Dec-09 14:50 160 15 4.3 4.0 Light rain.
2018-Dec-09 13:50 170 15 5.4 5.0 Light rain.
2018-Dec-09 12:50 170 15 5.4 5.0
2018-Dec-09 11:50 160 13 5.4 5.0
2018-Dec-09 10:50 180 14 5.4 5.0
2018-Dec-09 09:50 180 17 5.4 5.0
2018-Dec-09 08:50 180 18 5.4 5.0
2018-Dec-09 07:50 180 18 5.4 5.0
2018-Dec-09 07:33 180 18 5.4 5.0
2018-Dec-09 07:29 180 19 5.4 5.0
2018-Dec-09 06:50 180 18 5.4 5.0 Drizzle.
2018-Dec-09 06:39 180 17 5.4 5.0 Drizzle.
2018-Dec-09 06:27 180 17 5.4 4.0 Light rain.
2018-Dec-09 06:16 180 19 5.4 4.0 Light rain.
2018-Dec-09 06:05 180 18 5.4 5.0 Light rain.
2018-Dec-09 06:00 180 19 5.4 5.0 Light rain.
2018-Dec-09 05:50 180 18 5.4 4.0 Light rain.
2018-Dec-09 05:38 180 18 5.4 4.0 Light rain.
2018-Dec-09 05:23 180 19 5.4 4.0 Light rain.
2018-Dec-09 04:50 180 20 5.4 5.0 Light rain.
2018-Dec-09 04:29 180 20 5.4 5.0 Light rain.
2018-Dec-09 04:18 180 20 5.4 4.0
2018-Dec-09 03:50 180 20 5.4 4.0
2018-Dec-09 02:50 180 20 5.4 5.0 Light rain.
2018-Dec-09 02:00 180 19 5.4 4.0
2018-Dec-09 01:50 180 20 5.4 4.0
2018-Dec-09 01:28 180 20 5.4 4.0
2018-Dec-09 00:50 180 20 5.4 4.0
2018-Dec-09 00:30 180 20 4.3 4.0
2018-Dec-09 00:15 180 20 3.2 4.0 Light rain.
2018-Dec-09 00:14 180 20 3.2 4.0 Light rain.
2018-Dec-09 00:00 180 20 5.4 4.0 Light rain.
2018-Dec-08 23:50 180 20 5.4 4.0 Light rain.
2018-Dec-08 23:24 180 20 5.4 4.0 Light rain.
2018-Dec-08 23:10 180 20 2.6 4.0 Mist.
2018-Dec-08 23:01 180 20 5.4 4.0
2018-Dec-08 22:51 180 20 5.4 4.0 Light rain.
2018-Dec-08 22:50 180 20 5.4 4.0 Light rain.
2018-Dec-08 22:04 190 20 5.4 4.0
2018-Dec-08 21:50 190 19 5.4 4.0
2018-Dec-08 21:38 190 19 5.4 4.0
2018-Dec-08 21:35 190 20 5.4 4.0
2018-Dec-08 21:24 190 20 5.4 5.0 Light rain.
2018-Dec-08 21:13 190 20 5.4 5.0 Light rain.
2018-Dec-08 21:09 190 20 5.4 5.0 Light rain.
2018-Dec-08 21:07 190 20 5.4 5.0